Regional Weather Roundup
Issued by NWS

Home | Current Version | Previous Version | Text Only | Print | Product List | Glossary On
Versions: 1 2 3 4 5 6 7 8 9 10 11 12 13 14 15 16 17 18 19 20 21 22 23 24 25 26 27 28 29 30 31 32 33 34 35 36 37 38 39 40 41 42 43 44 45 46 47 48 49 50
000
ASUS43 KOAX 011610
RWRNE

WEATHER ROUNDUP FOR NEBRASKA
NATIONAL WEATHER SERVICE OMAHA NE
1000 AM CST SUN MAR 01 2015

NOTES: SATELLITE DATA IS BEING USED TO AUGMENT CLOUD COVER ABOVE
       12000 FEET.
       "FAIR" INDICATES FEW OR NO CLOUDS BELOW 12,000 FEET WITH NO
       SIGNIFICANT WEATHER AND/OR OBSTRUCTIONS TO VISIBILITY.

  * THESE STATIONS DO NOT REPORT WEATHER SUCH AS RAIN...SNOW OR FOG.

NEZ001>004-019>022-054>056-011700-
NEBRASKA PANHANDLE

CITY           SKY/WX    TMP DP  RH WIND       PRES   REMARKS
SCOTTSBLUFF    MOSUNNY   23  13  65 W8        30.27R WCI  14
ALLIANCE       PTSUNNY   21  12  68 NW7       30.26R WCI  12
CHADRON        PTSUNNY   25  13  60 NW9       30.30R WCI  15
KIMBALL        PTSUNNY   21  16  82 NW7       30.21R WCI  12
SIDNEY         SUNNY     23  15  71 N6        30.26R WCI  16
$$

NEZ057>060-069>072-079>082-011700-
SOUTHWEST NEBRASKA

CITY           SKY/WX    TMP DP  RH WIND       PRES   REMARKS
NORTH PLATTE   SUNNY     27   8  44 NE6       30.32R WCI  20
IMPERIAL         N/A     24  14  65 N8        30.29R WCI  15
LEXINGTON      SUNNY     26  16  65 N6        30.33R WCI  20
MCCOOK         SUNNY     28  15  58 VRB3      30.32R
OGALLALA       SUNNY     24  12  59 NE5       30.31R WCI  18
$$

NEZ005>010-023>029-035>040-094-011700-
NORTH CENTRAL NEBRASKA

CITY           SKY/WX    TMP DP  RH WIND       PRES   REMARKS
VALENTINE      CLOUDY    23  13  65 W10       30.32R WCI  12
AINSWORTH      SUNNY     23  15  70 W7        30.31S WCI  14
BROKEN BOW     SUNNY     26  13  57 N9        30.32R WCI  17
O`NEILL        CLOUDY    25  15  68 NW8       30.34R WCI  16
ORD            CLOUDY    25  12  58 N10       30.34R WCI  15
THEDFORD       SUNNY     25  14  64 NW6       30.31S WCI  18
$$

NEZ041-046>049-061>064-073>077-083>087-011700-
SOUTH CENTRAL NEBRASKA

CITY           SKY/WX    TMP DP  RH WIND       PRES   REMARKS
GRAND ISLAND   SUNNY     25  16  68 NE7       30.35S WCI  17
AURORA         SUNNY     26  17  67 N9        30.34S WCI  17
HASTINGS       SUNNY     27  17  66 N9        30.33R WCI  18
HEBRON         MOSUNNY   26  18  73 W6        30.38R WCI  19
HOLDREGE       SUNNY     27  17  64 N7        30.33R WCI  19
KEARNEY *      SUNNY     27  14  59 N8        30.34R WCI  18
YORK           SUNNY     27  18  69 N10       30.35S WCI  17
$$

NEZ011>018-030>034-042>045-011700-
NORTHEAST NEBRASKA

CITY           SKY/WX    TMP DP  RH WIND       PRES   REMARKS
NORFOLK        CLOUDY    26  13  57 N8        30.35R WCI  18
ALBION         MOSUNNY   26  14  60 N10       30.35R WCI  16
BLAIR          MOSUNNY   24  17  73 NW7       30.37R WCI  16
COLUMBUS *     PTSUNNY   27  12  54 N8        30.38S WCI  18
FREMONT        MOSUNNY   27  18  68 N7        30.38R WCI  20
TEKAMAH        MOSUNNY   27  17  66 N12       30.39R WCI  17
WAYNE          CLOUDY    27  13  56 N10       30.36S WCI  17
$$

NEZ050>053-065>068-078-088>093-011700-
SOUTHEAST NEBRASKA

CITY           SKY/WX    TMP DP  RH WIND       PRES   REMARKS
LINCOLN        SUNNY     26  17  68 NW8       30.39S WCI  18
OMAHA EPPLEY   MOSUNNY   25  15  66 NW8       30.39R WCI  16
BEATRICE       CLOUDY    25  19  78 W6        30.38R WCI  18
FALLS CITY     PTSUNNY   26  19  74 W8        30.40R WCI  18
NEBRASKA CITY  CLOUDY    26  17  68 W7        30.38S WCI  18
PLATTSMOUTH    SUNNY     26  17  69 W6        30.37S WCI  19
$$

NEZ044-045-051>053-067-011700-
OMAHA AREA

CITY           SKY/WX    TMP DP  RH WIND       PRES   REMARKS
OMAHA EPPLEY   MOSUNNY   25  15  66 NW8       30.39R WCI  16
BLAIR          MOSUNNY   24  17  73 NW7       30.37R WCI  16
FREMONT        MOSUNNY   27  18  68 N7        30.38R WCI  20
MILLARD        SUNNY     25  16  68 NW7       30.38S WCI  17
OFFUTT AFB     SUNNY     26  17  68 NW8       30.38S WCI  17
PLATTSMOUTH    SUNNY     26  17  69 W6        30.37S WCI  19
WAHOO          FAIR      26  16  66 N8        30.37S WCI  18
$$


USA.gov is the U.S. government's official web portal to all federal, state and local government web resources and services.